Theta_e
310 310 310 310 310 309 310 310 310 310 310 310 310 310 310 310 310 310 310 310 311 311 312 312 313 313 313 314 314 314 314 314 314 314 314 314 314 314 314 314 315 316 316 316 316 316 316 316 315 315 315 316 316 316 316 318 318 319 325 324 322 324 323 322 324 317 316 321 317 314 313 313 315 315 314 315 314 315 316 316 316 316 317 317 317 317 317 316
310 310 310 310 310 310 310 310 310 310 310 310 311 311 311 311 311 311 311 312 312 312 313 313 313 314 314 314 314 314 314 314 314 315 314 315 315 316 315 314 315 316 316 315 315 315 316 316 315 315 315 316 316 316 316 317 317 321 324 320 324 329 321 316 317 313 313 317 315 314 314 312 314 314 313 315 315 314 315 316 316 315 316 317 317 317 316 316
309 310 310 310 310 310 310 310 310 310 310 311 311 311 311 312 312 312 312 312 313 313 313 313 314 314 314 314 314 314 314 314 314 315 315 315 315 316 315 314 314 315 315 315 315 315 315 315 315 315 315 315 316 317 317 317 318 318 318 322 329 324 314 312 314 314 315 315 313 313 314 312 313 314 313 313 314 314 314 315 315 315 316 317 317 316 316 316
309 309 310 310 310 310 310 310 310 310 310 310 311 311 311 311 312 312 312 313 313 313 313 314 314 314 314 314 314 314 313 314 315 315 315 314 315 316 315 314 314 315 315 315 315 314 314 315 315 314 315 315 314 316 317 317 319 317 317 326 325 315 314 317 315 316 315 314 313 313 313 313 313 313 313 313 314 315 315 316 316 316 317 316 317 316 316 316
309 309 309 310 310 310 310 310 310 310 310 310 311 311 311 311 311 312 312 312 313 313 313 313 314 314 314 313 314 313 313 315 317 316 316 314 314 316 315 315 314 315 315 315 315 314 314 314 315 314 314 314 314 316 316 316 317 317 317 320 317 312 316 317 315 317 316 314 313 311 313 314 314 313 313 313 314 316 316 316 317 316 316 316 316 316 316 315
309 309 309 310 310 310 310 310 310 310 310 310 310 311 311 311 311 311 311 312 312 313 313 313 313 313 313 313 313 313 313 315 316 315 315 314 314 315 316 315 315 315 315 315 315 315 314 314 315 315 314 313 314 316 316 315 316 318 318 316 316 315 315 316 316 317 316 314 313 312 314 314 312 313 313 312 314 316 316 316 316 316 316 316 316 315 315 315
309 310 310 310 310 310 310 310 310 310 310 310 311 311 311 311 311 311 311 311 311 312 312 312 312 312 312 312 312 313 312 313 314 314 314 314 314 315 316 315 314 314 315 315 315 315 314 314 315 314 314 314 314 315 315 315 314 318 319 314 315 316 314 316 316 316 316 315 314 315 315 313 313 314 313 312 314 315 315 315 315 315 315 315 315 315 315 315
311 311 311 311 311 311 311 311 311 311 312 311 311 311 311 312 311 312 312 312 312 312 312 312 312 312 312 312 312 312 312 314 314 314 314 314 315 315 315 314 314 314 314 315 314 315 314 313 314 314 314 314 313 313 313 314 314 316 319 315 314 315 315 316 315 315 315 315 315 314 313 313 315 313 311 312 313 315 315 315 315 315 315 315 315 315 315 315
312 312 312 312 312 312 312 312 312 312 312 312 312 313 313 313 313 313 313 313 313 313 313 313 313 313 313 313 312 312 313 314 315 315 314 314 315 315 315 314 314 315 314 315 315 315 315 314 314 314 314 314 313 313 312 314 315 315 316 314 313 314 314 314 314 314 314 314 313 312 312 313 313 312 311 313 314 314 315 315 315 315 314 315 314 314 314 314
314 313 313 313 313 313 313 313 313 313 313 313 313 313 313 314 314 314 314 314 314 313 313 313 313 314 313 313 312 313 314 315 315 315 315 315 315 315 315 315 315 315 314 315 315 315 315 314 314 314 313 313 312 312 312 313 314 313 313 313 312 312 312 312 312 312 312 312 311 312 313 312 312 311 312 313 314 314 314 314 314 314 314 314 314 314 314 314
317 317 317 316 316 316 316 316 316 315 315 315 315 316 316 316 316 316 316 315 315 314 313 313 312 312 312 312 311 312 315 315 315 315 315 315 315 315 315 315 315 315 314 314 315 315 314 314 313 313 313 313 312 311 311 312 313 312 311 312 311 310 311 310 310 310 310 311 310 311 311 310 310 310 312 313 313 313 313 314 314 314 314 314 314 314 314 314
319 319 319 319 318 318 318 318 318 318 317 317 318 319 319 320 320 320 320 320 319 318 317 316 314 312 311 311 311 313 314 314 314 315 315 315 315 315 314 315 315 314 314 314 315 315 314 314 313 312 313 312 311 311 311 312 311 311 311 313 313 311 312 311 311 311 309 310 310 309 310 312 312 312 314 313 313 313 312 313 314 314 314 314 314 314 314 315
318 318 318 319 318 318 318 318 318 318 318 318 319 319 320 321 321 321 321 321 322 321 322 321 319 318 313 312 313 313 313 313 313 314 314 315 314 315 314 314 314 314 314 314 314 314 313 313 312 312 312 311 311 311 311 310 309 311 311 312 313 313 313 312 311 309 308 310 310 310 312 316 316 313 313 313 312 312 312 312 313 314 314 314 314 314 314 314
316 316 316 317 317 317 316 317 317 316 316 316 316 316 316 317 316 316 316 316 317 318 319 320 320 321 317 316 318 316 314 313 312 312 312 313 313 314 314 313 314 313 314 314 314 314 312 311 310 311 311 312 312 311 312 311 312 314 310 311 314 313 316 314 309 307 309 310 309 310 312 314 314 312 313 313 311 311 311 312 313 313 313 313 313 313 314 314
314 314 314 314 314 314 314 314 314 313 313 313 313 313 313 313 313 313 313 313 313 313 314 314 316 318 316 318 321 318 317 316 314 313 312 312 312 312 312 313 313 313 313 313 314 313 311 310 310 311 311 312 311 312 315 316 321 320 311 315 316 312 317 316 309 307 310 311 307 310 313 312 312 312 313 313 310 310 310 311 312 312 312 312 312 313 313 313
313 313 313 313 312 312 312 312 312 312 312 312 312 313 313 313 313 313 313 313 312 312 312 312 312 314 315 317 318 317 318 318 317 316 314 313 312 312 312 312 313 313 313 313 313 311 311 312 311 311 311 311 313 316 317 317 323 321 312 314 317 313 314 313 311 308 307 310 308 309 313 312 312 312 313 313 311 310 309 310 311 311 311 311 311 312 312 313
313 312 312 312 312 312 312 312 312 313 314 315 315 315 315 314 314 313 313 312 313 313 311 311 312 312 314 315 315 315 316 317 316 315 314 313 313 313 313 313 313 313 312 312 312 311 312 312 311 312 312 311 314 317 316 315 318 318 313 313 315 314 312 311 314 310 305 309 311 310 310 310 312 311 310 312 312 310 308 309 310 310 310 311 311 311 311 312
312 312 312 312 312 312 313 314 314 316 318 320 319 320 319 316 315 314 314 313 313 313 312 312 311 312 315 315 314 315 315 315 315 314 313 313 313 313 314 313 313 313 312 312 312 311 312 310 310 315 314 311 312 313 315 316 316 316 315 315 314 313 312 311 313 311 309 310 311 310 309 309 309 309 308 310 311 310 309 309 309 310 310 310 311 310 311 311
312 313 313 313 314 314 315 316 318 320 322 323 322 322 320 317 317 316 315 314 313 314 314 313 312 315 317 315 314 315 315 315 314 314 313 313 313 313 314 313 313 313 311 312 313 310 311 310 311 314 314 312 312 312 313 314 314 314 314 314 313 312 311 312 311 309 309 310 309 310 309 309 309 309 308 309 310 309 309 310 310 310 311 310 310 311 311 311
314 314 315 315 316 317 317 319 321 322 323 324 323 323 321 319 319 317 315 316 316 317 317 315 314 314 314 314 314 314 314 314 314 314 313 313 313 313 313 312 312 312 311 315 316 309 309 313 313 315 314 313 312 311 311 312 312 311 311 312 312 311 310 310 311 309 307 309 310 310 310 310 309 309 309 309 309 309 308 309 310 310 311 311 311 311 312 312
316 317 317 317 318 319 320 321 322 323 323 323 323 323 321 318 318 318 316 318 321 320 320 319 317 316 316 317 316 314 313 313 313 313 313 314 313 313 313 311 312 313 311 312 312 308 309 313 314 315 313 312 313 312 311 311 311 311 312 312 311 311 310 309 311 310 307 308 310 311 310 309 309 309 309 309 309 309 309 309 309 310 310 311 311 312 312 312
319 319 319 320 320 321 322 322 323 323 323 323 323 323 321 318 317 316 314 315 319 321 322 322 321 319 320 321 319 315 313 312 313 313 313 313 313 313 313 312 314 315 310 309 311 311 311 313 313 312 310 312 315 313 311 311 312 312 311 311 311 311 311 310 310 311 309 309 311 311 310 309 309 309 309 309 310 309 310 309 310 310 310 311 312 312 312 312
320 320 321 321 321 322 322 323 324 323 323 323 323 323 322 320 318 316 314 312 316 321 322 322 321 320 321 321 320 316 312 311 312 312 313 313 312 312 312 311 313 315 313 312 314 314 315 315 312 309 308 310 313 313 312 311 311 312 311 311 312 311 312 312 312 313 311 309 310 310 309 309 310 309 310 309 308 309 310 310 310 311 311 311 312 312 311 312
322 321 321 322 322 323 323 324 323 323 323 323 323 323 322 320 318 317 315 313 315 318 319 320 318 317 319 317 317 316 312 311 311 311 312 312 312 312 311 311 312 314 313 312 314 313 315 314 308 308 309 310 311 310 311 312 311 312 312 311 312 312 311 311 311 312 311 311 312 310 311 314 313 313 314 311 309 309 309 309 310 312 314 311 311 312 311 311
323 323 323 323 323 324 324 324 323 323 323 323 323 323 323 321 318 317 314 316 319 318 316 316 314 314 315 314 314 313 311 311 311 311 311 312 312 312 311 310 311 314 313 312 312 311 312 310 307 310 312 310 311 310 312 313 311 312 313 312 311 312 311 311 311 310 311 315 313 310 313 316 316 317 319 319 318 314 310 310 312 312 313 310 311 312 311 311
324 324 324 324 324 324 324 324 323 324 323 323 323 323 323 321 319 317 314 319 324 320 315 314 313 313 312 311 312 311 313 313 310 310 311 311 312 311 312 310 309 313 313 311 311 310 311 309 308 313 314 312 311 311 313 313 310 312 315 316 313 311 312 312 311 310 314 316 312 311 315 315 315 317 319 320 320 318 314 315 314 310 310 310 312 312 311 312
325 325 324 324 324 324 325 324 324 324 323 323 323 323 323 322 319 315 315 323 325 319 315 313 312 312 310 309 310 311 316 316 310 310 310 311 311 310 312 312 309 310 308 309 313 312 312 310 309 311 313 314 312 311 314 311 311 314 315 316 316 313 313 312 310 311 314 314 311 313 314 314 314 315 316 315 315 318 317 317 313 309 310 311 313 312 311 312
325 325 325 325 325 325 325 325 325 324 323 323 323 323 323 322 319 316 321 329 326 315 313 312 310 311 310 309 309 309 311 310 309 311 310 311 311 309 311 311 312 313 308 309 316 311 310 313 312 312 312 313 314 314 314 311 312 315 311 312 314 313 313 312 311 312 312 312 313 312 312 315 317 314 314 312 314 318 317 317 315 310 311 313 314 314 311 311
325 325 325 325 325 325 325 325 325 324 324 323 323 324 323 322 319 317 323 328 323 315 312 311 311 311 309 309 309 308 308 308 309 310 309 311 311 309 310 309 309 312 308 308 314 310 309 311 310 314 315 314 315 316 315 314 313 311 308 311 314 313 313 312 313 314 315 315 315 314 313 316 319 317 316 314 315 320 318 316 314 309 310 313 315 315 312 311
323 323 324 324 325 326 325 326 325 324 324 323 324 324 322 322 320 321 326 325 320 317 312 310 311 309 309 311 311 308 308 309 309 309 309 309 310 309 310 308 306 312 311 308 313 311 307 306 306 311 313 312 314 311 308 310 309 305 309 315 315 315 314 314 315 315 316 318 316 316 315 315 319 318 317 317 317 319 317 316 317 314 313 313 313 314 312 311
320 320 321 322 323 324 324 324 324 324 324 323 323 322 320 321 321 325 328 321 319 320 314 311 312 312 313 313 313 311 309 308 307 309 311 310 311 309 309 309 309 315 317 312 313 311 307 307 309 310 308 307 312 310 305 304 304 307 316 316 314 317 315 316 318 315 317 319 316 315 313 313 318 317 316 318 317 318 316 317 321 318 314 313 313 312 311 311
319 319 319 320 321 322 323 324 324 324 323 323 322 320 320 322 322 324 325 321 324 324 316 313 313 315 315 312 315 315 310 309 307 309 312 312 312 312 313 316 314 317 320 317 317 315 313 312 310 309 307 306 311 313 309 307 306 310 315 313 312 316 316 316 319 317 317 319 314 311 311 312 316 316 315 316 316 318 314 312 315 313 311 314 314 311 311 311
317 317 318 319 319 320 321 322 323 323 323 322 321 319 320 322 323 323 324 324 324 321 315 313 313 314 314 314 319 316 310 312 310 308 311 311 311 314 316 316 313 314 317 317 317 318 319 316 309 308 310 308 310 313 313 313 311 309 312 313 314 316 316 318 322 318 317 320 314 309 311 314 316 318 317 315 314 314 310 307 310 309 310 313 312 310 311 311
316 316 316 317 317 318 319 319 321 322 322 321 319 319 321 322 322 323 324 326 324 320 316 315 315 315 314 316 321 318 315 317 313 309 311 312 314 317 318 314 310 311 313 313 315 317 318 320 316 314 313 311 310 311 316 319 312 309 312 314 315 318 320 321 323 321 319 322 317 309 313 318 319 321 319 313 310 309 308 308 310 309 310 311 310 309 310 310
315 316 316 316 316 316 316 317 318 320 321 320 319 321 323 323 323 323 324 325 324 322 319 316 316 319 319 319 320 316 315 319 316 312 314 316 320 322 322 319 313 311 313 315 317 316 315 320 320 313 309 310 311 310 314 319 314 310 313 314 313 317 321 318 320 322 319 320 317 312 316 318 315 318 317 310 308 308 308 308 309 310 311 309 308 308 308 307
313 314 314 314 315 315 315 315 316 319 319 319 320 321 322 322 324 324 322 321 320 319 320 320 318 320 322 322 321 316 313 315 316 314 315 316 319 320 320 320 315 311 312 316 319 317 315 320 319 310 307 309 309 308 310 314 315 312 311 314 314 315 316 316 319 319 316 317 318 316 318 316 315 317 314 311 313 312 311 310 306 308 309 307 305 305 305 304
310 311 311 312 312 313 315 314 315 318 319 318 320 321 321 320 322 323 320 316 315 316 318 320 320 321 322 321 323 319 314 314 315 315 317 317 317 318 318 318 313 310 312 315 318 319 318 320 318 313 313 309 304 306 308 307 310 314 315 314 313 313 314 315 317 319 317 317 318 318 318 317 318 318 314 315 317 315 317 317 308 304 306 304 302 301 301 302
308 308 308 309 309 310 312 313 315 317 317 317 319 320 320 319 317 317 317 314 315 317 318 320 321 322 322 321 323 321 316 317 317 316 319 319 316 317 319 318 313 308 309 312 316 319 317 317 317 314 314 310 304 307 311 307 306 311 314 313 313 314 315 315 317 318 318 318 319 319 318 317 318 317 315 317 320 317 317 316 308 303 302 300 298 298 298 300
306 306 306 308 309 309 310 313 315 317 316 317 319 319 319 319 316 315 317 316 316 318 319 320 320 321 322 321 322 322 319 318 318 317 318 319 317 316 315 316 313 308 306 308 314 317 314 315 318 315 313 311 309 311 315 313 308 307 310 312 312 313 315 316 317 319 318 318 320 320 320 319 318 317 317 317 317 315 312 308 303 300 299 297 296 296 296 298
305 306 308 310 312 312 311 312 315 316 317 318 318 317 317 317 316 315 317 316 316 317 319 320 321 320 321 321 320 321 320 319 319 318 319 320 319 317 314 314 315 313 308 308 310 314 315 315 316 315 314 313 313 314 316 316 314 311 312 313 312 312 315 316 315 317 317 317 318 319 319 320 319 318 316 313 310 308 306 303 299 298 297 295 295 294 295 296
304 306 308 309 311 312 311 313 315 315 317 318 316 316 316 315 315 315 316 315 315 316 316 318 320 319 318 319 319 319 319 321 321 319 319 321 319 318 316 313 315 317 314 313 314 315 318 317 315 315 315 314 315 317 316 316 317 315 313 313 313 313 315 315 315 316 316 315 316 318 318 320 323 319 311 306 302 301 300 299 297 296 295 294 294 295 296 296
304 307 309 308 310 312 312 315 315 314 315 317 316 315 315 315 315 315 314 315 315 315 315 316 318 317 316 317 318 318 318 320 320 319 318 320 318 316 315 311 311 313 315 318 317 313 313 314 314 314 315 315 316 317 315 314 315 314 313 314 315 313 313 316 317 317 317 316 315 317 316 319 320 314 304 300 299 297 297 296 296 295 294 294 294 294 295 296
304 307 309 309 310 312 313 315 315 315 315 315 315 315 315 314 315 315 314 314 314 314 315 316 315 315 316 316 316 317 317 317 318 318 318 319 317 313 309 309 311 310 311 316 316 311 309 311 313 314 314 316 316 314 311 310 311 312 313 314 314 313 313 315 314 314 316 316 316 318 318 319 317 309 300 298 297 296 295 295 295 294 294 294 294 294 295 295
301 304 307 311 313 312 313 314 314 315 315 314 314 314 314 314 314 314 313 314 315 314 315 315 314 314 315 315 315 315 315 316 316 315 315 317 315 308 305 307 309 307 308 313 314 311 311 313 315 314 315 316 316 314 312 311 312 314 315 314 313 312 313 313 312 312 313 314 315 316 316 317 317 311 303 299 296 295 294 293 293 293 293 294 294 295 295 295
298 299 302 306 311 311 311 311 311 313 313 314 314 313 313 313 313 313 313 313 313 313 314 314 312 310 311 311 312 312 312 313 313 312 313 314 312 307 304 306 307 305 305 306 307 309 311 313 314 314 315 315 314 314 313 312 312 313 314 314 313 311 312 312 312 313 313 313 314 314 314 315 316 314 309 303 298 296 294 293 293 293 293 293 293 294 294 294
298 302 302 301 304 306 306 307 308 310 312 312 312 312 312 312 311 312 313 313 313 312 312 312 310 309 310 310 311 312 311 311 311 311 312 314 314 308 303 304 304 304 304 304 304 307 310 311 312 313 313 313 313 313 312 310 310 312 313 313 311 310 310 311 311 313 314 314 314 314 314 314 314 314 311 305 299 296 294 294 293 292 292 293 293 293 293 292
298 303 303 301 303 303 304 306 305 307 308 309 310 311 311 311 311 311 312 313 312 311 311 311 310 311 312 311 312 312 312 312 311 310 311 312 312 308 303 302 302 301 303 302 303 307 310 309 310 311 311 311 311 310 308 307 308 309 310 309 309 309 309 310 311 311 312 312 313 313 313 312 312 312 308 301 296 295 294 294 294 293 292 292 292 292 292 292
299 300 298 299 303 303 303 304 302 302 305 305 306 308 309 310 310 310 310 309 309 310 311 310 310 310 309 309 310 311 311 310 309 309 310 308 308 307 305 303 300 299 300 300 301 306 309 308 308 309 308 307 307 305 305 306 305 306 306 307 307 307 308 308 308 308 308 309 309 309 309 309 309 308 302 296 294 294 293 293 293 293 293 293 293 292 292 292
296 296 296 297 299 299 300 300 299 300 302 303 304 306 307 308 308 307 308 307 306 308 310 310 308 305 304 305 307 309 309 308 308 307 305 304 305 306 306 304 301 298 298 300 301 304 306 306 306 306 305 304 304 304 305 304 304 303 304 304 305 305 305 304 304 304 304 304 305 305 305 306 305 301 297 294 293 293 292 292 292 292 293 293 293 292 291 291
294 295 296 296 296 296 296 297 298 299 300 301 303 303 304 305 305 305 306 306 306 306 306 306 303 300 300 302 303 305 304 303 305 305 301 301 303 303 301 302 302 298 297 300 302 302 303 305 304 303 303 303 303 303 303 303 302 302 301 302 302 301 301 301 301 301 301 302 302 302 304 305 300 294 294 294 293 292 292 292 292 292 292 292 293 293 291 290
294 295 295 295 296 296 296 295 296 298 299 300 301 302 303 303 302 302 303 303 303 303 301 300 299 297 299 300 300 301 300 298 299 300 298 299 301 300 298 299 299 297 298 301 302 302 302 303 303 303 302 302 302 302 302 301 300 300 299 300 299 299 299 299 299 300 300 301 301 301 302 302 296 293 293 294 292 292 292 292 291 291 291 292 293 292 290 290
294 294 294 294 295 295 294 294 295 297 298 298 299 299 300 299 297 299 302 300 298 297 296 295 297 297 297 299 299 299 298 296 296 296 296 296 296 296 297 297 296 297 298 299 300 301 302 301 300 301 301 301 301 300 299 299 298 298 298 299 299 298 298 298 298 300 301 301 302 302 300 297 295 294 295 294 293 293 292 292 292 291 290 291 292 292 290 289
Wind_Speed
8 8 8 7 7 7 7 6 6 6 6 5 5 5 5 5 4 5 4 5 5 5 6 6 7 8 8 10 10 11 13 13 14 16 12 3 2 5 5 7 8 8 8 8 7 6 6 6 7 6 6 6 4 4 5 5 7 6 3 2 2 3 4 5 8 8 4 3 5 5 5 3 6 9 8 7 9 13 17 23 25 22 25 27 27 27 26 27
9 9 9 8 7 7 7 7 7 7 6 6 6 6 6 6 6 5 5 5 5 6 7 7 8 9 10 11 12 13 14 15 17 13 3 1 5 7 5 4 8 10 10 9 8 7 7 6 8 8 8 7 4 5 5 6 8 5 2 2 4 5 6 7 10 9 6 6 7 11 13 8 9 10 7 5 8 10 13 23 26 23 27 28 25 25 24 25
10 10 9 9 9 8 8 7 7 7 7 7 7 7 7 6 6 7 7 7 7 8 8 9 10 11 12 12 13 15 15 18 16 4 5 5 7 7 5 4 5 10 12 10 9 8 8 7 7 9 9 7 4 5 5 5 7 4 3 2 6 7 6 8 12 13 13 12 8 12 15 12 14 12 6 5 8 9 11 20 22 22 28 27 23 20 21 23
10 10 10 10 10 9 9 9 9 9 9 9 8 8 8 8 8 8 8 8 9 9 10 11 12 13 13 14 15 15 16 18 10 5 5 11 8 6 4 4 3 5 10 11 11 10 10 9 8 9 9 6 4 4 5 7 6 4 6 4 6 5 3 10 15 17 17 15 12 13 12 13 16 11 8 6 4 7 16 26 25 27 32 30 27 23 22 25
10 10 11 11 10 10 10 10 10 10 10 10 10 10 10 10 10 10 10 11 11 11 12 12 13 14 14 15 15 15 14 11 3 8 5 13 9 7 4 4 4 2 6 10 12 11 10 9 9 9 7 4 4 3 4 9 8 4 8 11 10 5 3 10 13 14 14 13 13 10 9 13 14 11 13 10 5 11 24 32 31 35 37 34 32 29 28 28
11 11 11 12 11 11 11 11 11 11 11 11 11 12 12 12 12 12 12 13 13 13 14 13 14 15 16 16 16 16 10 4 5 7 12 15 11 9 7 6 4 4 4 8 12 11 10 9 9 8 5 2 4 5 4 9 10 4 7 12 16 13 10 12 12 12 13 11 11 9 12 18 14 13 17 16 17 26 35 37 37 39 38 36 35 33 33 32
12 12 12 13 13 12 12 12 12 12 12 13 13 13 13 13 13 13 14 14 15 15 15 15 16 16 17 17 18 16 9 10 15 15 16 15 12 10 8 8 7 6 5 6 10 12 11 11 12 9 4 1 4 7 5 8 11 6 4 7 15 17 17 20 17 15 16 16 18 17 17 22 18 12 13 15 23 35 40 38 37 36 36 35 33 32 32 31
12 13 13 13 13 14 13 13 14 14 14 14 14 15 15 15 15 15 15 15 16 16 17 17 17 17 17 17 18 14 12 16 18 15 13 9 8 8 9 12 11 9 8 8 9 11 12 12 14 10 5 4 6 6 5 6 6 7 8 8 10 12 18 21 19 19 19 21 24 19 18 29 30 17 15 22 31 38 35 32 32 31 31 31 30 29 28 29
14 14 14 15 15 15 15 15 15 16 16 16 16 17 17 17 17 17 17 17 17 17 19 18 18 19 18 19 19 14 17 19 14 11 9 6 8 11 15 15 13 13 11 10 10 11 12 13 15 13 8 7 7 6 6 5 5 9 13 11 9 12 18 19 19 21 20 23 21 11 15 31 32 17 18 30 30 27 23 24 27 26 29 29 29 29 28 29
15 16 16 16 16 16 17 17 17 17 17 18 18 18 19 19 19 19 19 19 19 19 20 19 19 19 18 21 16 11 17 18 13 14 13 12 16 18 20 18 17 16 13 12 12 13 13 12 11 11 10 7 6 7 7 6 5 7 9 11 14 16 21 18 18 21 18 21 19 11 13 27 26 8 12 27 18 13 18 24 27 26 31 32 31 31 29 30
16 17 17 17 17 18 18 18 18 18 18 19 19 20 20 21 21 21 20 20 20 20 21 20 21 21 20 22 17 16 22 21 18 20 18 20 22 22 22 20 20 17 13 13 12 12 12 12 10 7 7 5 5 5 8 10 8 6 5 10 15 14 21 18 14 21 16 13 17 15 11 20 17 3 18 35 23 17 23 27 30 30 32 32 30 30 28 29
17 17 18 18 18 19 18 19 19 19 19 20 20 21 22 22 22 22 22 21 21 21 21 21 20 21 20 23 27 27 27 25 23 23 21 22 24 24 23 21 20 17 14 13 11 11 11 13 14 10 6 4 3 1 6 9 6 5 4 6 11 8 16 16 13 18 13 6 9 10 5 11 8 11 31 40 25 20 22 26 32 31 31 29 27 28 28 30
17 17 18 18 18 18 19 19 19 20 20 20 21 22 23 23 23 23 22 22 22 21 22 21 21 21 19 23 31 29 26 24 22 21 21 23 24 25 24 22 19 16 15 13 12 12 12 13 14 13 9 5 3 3 4 2 1 5 1 0 6 6 9 10 6 7 7 5 8 10 3 7 8 20 36 32 19 18 19 24 30 30 30 29 28 30 32 35
16 16 16 17 17 18 18 18 19 19 19 20 20 21 21 22 22 22 21 21 20 20 21 20 20 20 17 22 30 28 26 25 23 22 23 24 25 26 25 22 18 16 14 14 14 13 13 12 12 13 11 10 7 6 5 4 1 3 2 1 2 3 7 7 1 5 3 5 13 11 5 9 9 21 34 28 17 14 16 23 28 30 32 33 34 34 37 41
13 13 14 14 15 15 16 16 16 16 16 17 17 18 19 19 19 19 18 18 17 17 18 18 19 16 14 22 27 25 24 23 20 20 21 22 24 25 24 19 16 14 13 13 14 13 11 10 12 10 7 10 8 4 3 4 2 1 2 3 1 3 6 10 7 7 7 5 12 9 5 8 9 19 29 24 15 12 14 23 30 34 36 37 40 39 42 45
10 10 10 10 11 11 12 12 12 12 13 13 14 15 16 16 17 17 17 17 15 15 15 14 16 12 9 16 21 21 22 22 19 19 20 21 21 22 21 17 13 12 12 13 13 11 10 10 10 8 4 5 4 2 2 3 4 2 2 5 4 5 4 7 11 8 9 4 6 8 6 6 7 14 21 19 20 18 16 26 36 39 40 41 42 41 43 45
7 7 7 7 7 8 8 9 10 10 11 12 13 14 15 16 16 16 15 15 14 13 12 11 10 8 9 15 19 21 21 19 18 17 17 18 19 19 19 16 12 12 12 12 12 10 10 10 7 4 3 1 3 4 2 2 5 3 2 4 5 6 4 3 9 8 3 6 5 7 7 10 11 13 21 27 31 28 23 31 37 39 42 43 43 41 42 42
5 5 5 5 5 6 7 8 9 9 10 12 14 15 15 14 13 14 14 12 9 7 6 7 5 2 8 15 16 18 17 15 15 14 14 15 16 16 15 14 12 11 11 9 10 11 10 7 4 1 1 1 2 4 3 6 8 6 5 4 4 4 5 6 7 5 3 2 4 4 8 15 14 14 23 32 34 30 31 34 35 38 42 43 42 41 42 41
4 3 3 4 5 5 6 7 9 10 11 12 13 15 13 11 12 11 8 7 5 3 4 6 8 3 6 10 12 15 17 17 16 16 16 15 13 12 11 11 11 12 11 6 6 11 11 4 4 2 3 6 7 8 11 13 9 6 5 5 6 6 6 7 9 7 4 6 7 9 15 15 12 13 18 27 29 27 33 37 37 39 39 39 39 40 43 42
3 3 4 4 5 6 6 7 9 11 13 13 14 14 10 10 9 5 6 11 12 11 12 14 15 16 18 21 21 20 20 20 20 18 16 13 11 10 11 11 10 11 8 5 5 8 9 5 3 6 10 12 11 10 13 10 3 1 2 4 7 7 8 8 9 8 1 3 9 11 18 16 13 12 13 26 27 21 28 33 35 38 37 37 38 42 44 42
4 4 4 4 5 6 7 8 10 12 13 14 16 13 8 9 5 4 11 17 18 17 20 23 23 26 28 29 28 27 23 20 21 19 14 12 10 8 11 11 8 5 4 5 5 3 5 6 7 12 13 8 6 6 8 7 5 5 5 6 7 6 11 10 10 10 1 2 6 7 16 18 13 12 14 23 22 19 25 24 28 37 37 38 41 43 41 38
6 6 6 6 6 7 7 8 10 11 12 13 14 12 10 10 8 9 11 13 20 23 22 23 27 31 32 30 31 31 25 17 19 19 14 13 13 10 10 10 5 3 3 4 3 1 3 4 10 16 9 1 3 3 4 5 7 8 5 5 6 4 9 9 7 8 2 1 6 7 15 15 13 16 17 21 19 22 28 24 30 38 36 41 43 36 33 32
9 8 8 8 8 8 8 8 9 11 11 11 12 12 11 13 12 14 11 9 17 22 21 24 28 32 31 30 31 31 25 18 17 18 16 15 15 12 10 9 4 2 4 5 6 5 4 5 14 17 7 2 4 4 6 2 4 6 5 4 6 3 5 7 4 5 3 3 6 9 14 13 12 15 15 19 20 23 30 31 34 39 40 43 38 31 30 31
11 10 9 10 10 10 8 8 10 10 9 9 11 11 12 14 14 17 13 7 8 13 20 25 23 24 26 24 23 22 20 17 13 11 15 17 15 9 8 9 5 3 5 9 10 9 7 5 7 9 6 8 8 1 3 4 6 7 6 5 8 8 9 9 5 6 6 5 3 6 12 9 5 6 6 8 10 15 24 24 28 39 42 35 31 31 28 22
13 12 10 10 11 10 9 9 9 8 8 9 10 10 12 14 15 17 13 5 5 7 12 14 10 10 14 14 13 12 10 12 12 10 11 16 17 8 5 8 6 4 8 9 8 9 8 6 3 4 4 8 7 5 6 7 8 6 5 10 14 13 11 11 8 7 5 4 3 6 8 7 1 0 5 4 3 7 10 10 23 35 27 17 22 24 16 13
16 14 11 10 10 10 10 10 9 8 10 10 9 9 11 12 13 15 10 2 4 4 3 4 3 1 3 4 5 6 3 4 9 13 12 15 18 10 3 5 4 4 7 6 3 4 4 7 5 5 5 6 6 6 7 9 6 6 5 11 13 10 9 10 7 3 1 3 2 4 2 8 3 3 6 5 4 9 8 9 21 24 13 13 19 18 13 12
18 16 12 10 10 11 11 10 11 11 10 9 9 9 8 8 9 11 7 2 4 2 3 2 2 1 1 3 7 8 3 2 1 8 14 14 15 10 4 3 2 2 4 3 2 3 3 3 1 4 5 6 5 6 7 10 5 6 5 6 7 7 8 6 3 3 4 3 4 1 4 7 8 4 5 3 3 9 12 13 16 11 10 16 20 16 12 8
19 19 16 12 11 12 12 12 13 12 10 9 9 8 6 6 7 7 3 2 3 2 3 1 3 3 1 6 10 5 2 1 2 2 10 12 12 7 4 5 5 4 4 5 4 3 3 4 5 6 5 4 6 6 7 12 6 6 3 5 5 5 4 4 4 3 2 3 4 3 5 3 9 4 1 2 2 8 13 14 12 7 9 14 15 13 8 7
20 20 18 16 15 14 14 14 13 12 11 9 9 8 7 6 5 6 2 3 2 3 2 1 2 2 3 6 5 1 5 4 2 2 6 8 11 5 1 5 6 4 4 4 6 4 1 3 6 8 6 6 8 4 8 12 6 4 5 6 5 3 3 4 3 3 2 3 4 5 5 3 10 4 3 2 1 7 10 10 9 7 11 17 13 7 7 10
17 17 17 17 16 16 16 14 13 12 12 10 10 9 6 4 3 2 4 3 1 2 1 1 0 2 2 4 1 3 1 2 3 5 4 3 8 4 1 2 2 3 2 3 4 6 1 2 1 5 6 6 5 2 3 8 5 5 6 4 5 4 4 3 1 3 1 5 5 10 11 6 6 4 4 3 3 5 6 5 7 6 10 16 8 6 10 12
16 16 16 15 15 16 16 15 13 12 11 10 10 6 1 1 2 3 6 1 2 1 2 2 1 2 3 3 2 2 0 1 2 5 2 3 3 1 2 1 1 3 3 4 4 4 1 1 1 5 6 4 6 4 3 1 3 4 4 3 3 3 4 4 4 3 1 7 5 9 10 9 8 5 1 4 6 5 5 4 6 4 11 14 3 10 13 14
17 16 16 16 16 15 16 15 14 12 10 9 7 0 3 1 2 4 3 3 2 1 2 0 1 2 3 2 1 1 1 0 1 3 2 2 2 2 2 3 2 2 4 2 3 4 2 5 3 2 4 5 5 2 3 3 3 4 3 2 1 3 3 3 3 0 3 7 4 4 4 5 9 5 4 9 10 7 7 8 8 7 13 14 3 7 14 16
17 16 16 17 17 16 15 15 14 12 10 7 3 4 4 1 4 2 0 1 2 0 2 1 0 2 2 1 2 2 0 1 2 2 2 2 1 2 4 4 5 2 3 2 2 4 4 4 1 0 4 7 8 4 2 2 3 5 4 4 3 1 1 3 3 2 4 5 4 1 3 4 6 4 8 14 13 7 4 8 14 15 17 19 15 8 13 18
17 17 17 17 17 16 16 15 14 11 8 5 4 4 2 5 3 2 2 4 2 2 1 2 2 1 1 2 3 3 2 2 3 4 1 2 1 2 4 4 4 3 1 1 2 1 4 7 3 4 3 8 10 8 5 4 5 5 4 4 3 3 4 4 3 4 6 4 4 1 3 4 2 2 7 9 7 6 4 6 11 13 15 17 12 10 18 22
18 18 18 18 17 16 15 15 13 9 9 7 4 2 5 6 2 1 3 4 2 3 3 1 2 3 2 2 3 2 4 3 2 4 2 2 3 3 2 3 5 5 3 1 1 2 3 8 6 3 1 9 8 5 5 6 2 3 3 3 2 4 4 3 4 5 3 2 3 2 3 5 4 5 9 7 5 8 10 11 11 12 14 9 13 22 24 25
19 19 20 20 19 17 16 15 11 10 10 7 3 5 7 4 2 3 3 2 2 2 2 4 0 1 4 2 2 2 1 2 1 1 1 3 3 5 5 4 6 9 6 4 2 2 3 7 4 1 0 7 7 3 4 3 2 2 3 3 3 3 4 2 4 2 1 3 6 5 6 6 5 7 7 3 0 4 7 7 7 12 12 13 24 27 26 27
20 20 21 21 19 16 16 16 12 11 13 9 4 7 4 2 5 5 3 2 2 2 0 4 2 3 3 2 2 2 1 1 2 1 2 2 3 4 5 4 6 11 11 7 2 3 4 8 6 4 5 7 4 2 2 1 4 5 3 4 1 2 3 2 2 1 1 6 6 6 12 11 6 6 3 4 4 5 6 5 6 14 19 21 23 25 26 28
21 20 21 21 19 17 16 16 14 15 14 7 7 9 4 3 6 6 5 4 1 1 3 4 4 3 3 4 4 2 3 2 2 2 2 3 4 5 5 4 6 9 9 6 2 2 5 7 8 4 5 4 2 2 2 2 3 4 2 1 2 2 2 1 1 1 3 7 4 5 11 10 7 7 3 4 6 6 6 6 9 15 19 20 22 26 28 28
16 14 13 12 12 15 16 16 17 20 13 4 7 9 3 4 7 9 11 8 3 2 4 5 5 3 3 4 3 2 3 4 3 2 3 3 4 5 5 2 3 3 4 7 4 2 2 5 6 0 1 1 2 1 2 2 2 1 1 2 1 2 3 1 2 1 3 6 5 5 8 7 7 4 1 2 6 6 6 8 11 12 16 19 22 24 26 28
8 5 4 5 6 10 15 18 20 19 9 3 7 6 2 2 5 9 13 9 4 3 4 5 5 4 4 4 4 3 3 4 4 4 4 3 4 4 4 3 4 2 1 4 4 1 2 3 6 1 1 2 1 3 5 6 4 2 1 2 1 2 1 1 2 2 3 7 6 6 7 6 6 4 5 6 8 9 8 9 10 11 17 21 22 23 24 27
6 3 2 6 5 8 18 19 14 10 4 4 7 5 4 3 3 4 7 8 7 5 4 3 5 5 4 3 4 3 2 3 5 4 4 3 5 5 2 1 3 4 3 2 3 3 1 3 4 4 4 4 5 6 7 8 6 5 4 5 5 5 3 5 6 4 4 5 5 7 9 6 5 4 8 10 9 9 10 10 9 12 18 19 22 24 25 26
8 2 3 8 6 11 20 14 6 5 3 4 5 4 4 4 4 5 5 6 6 5 4 2 3 4 4 5 5 4 4 4 4 5 4 5 7 7 3 7 3 2 1 1 2 2 1 1 1 5 7 8 9 5 3 5 5 2 3 5 5 5 5 7 9 6 5 5 5 7 9 5 1 5 10 10 8 11 15 15 11 13 17 18 20 23 24 25
8 5 6 9 9 16 18 7 4 4 3 5 5 6 7 4 3 4 4 4 4 3 3 2 3 6 5 6 6 5 5 5 6 8 6 4 5 3 7 9 4 2 2 2 2 3 3 2 1 4 4 7 8 2 3 1 2 1 3 5 5 4 4 6 7 3 4 5 5 7 6 3 1 6 12 12 11 13 16 16 14 15 18 20 21 23 24 25
7 7 8 11 17 21 14 4 4 5 5 7 6 8 11 8 6 6 4 3 4 3 1 2 3 5 3 2 2 3 4 4 5 8 5 2 3 4 11 10 4 2 2 1 1 1 1 1 1 2 3 4 5 3 3 4 1 1 3 2 1 3 5 6 4 1 2 6 9 10 6 3 3 2 8 11 11 11 11 13 14 14 15 18 20 21 22 24
4 5 7 11 19 19 8 1 2 3 5 7 7 9 10 9 10 12 9 6 7 6 3 3 3 1 1 1 1 2 3 3 3 4 1 1 3 3 9 10 7 4 3 3 2 2 2 2 2 3 6 5 6 6 2 1 1 2 3 4 4 3 4 5 5 4 4 7 9 8 6 5 5 7 8 6 6 7 8 9 11 11 12 15 17 18 20 23
3 1 3 6 13 15 9 3 1 2 3 4 6 8 9 9 9 11 10 9 10 10 7 6 3 1 2 3 4 6 6 5 4 2 2 3 3 1 4 8 9 5 4 6 5 2 1 2 4 6 8 7 8 7 2 2 2 4 4 5 6 5 4 4 4 5 5 6 7 7 8 9 9 9 8 7 7 6 6 6 7 8 9 10 12 14 16 18
2 1 2 1 4 8 8 6 3 2 2 2 1 3 5 6 4 4 5 4 3 3 4 5 3 3 5 4 4 5 6 5 4 4 5 5 3 1 1 4 7 5 3 2 4 2 2 2 5 7 9 7 6 7 5 4 3 4 4 6 7 7 6 7 9 8 7 7 7 6 7 9 9 7 4 4 5 5 5 6 7 6 6 7 8 10 11 12
2 1 3 3 1 2 4 4 3 3 4 3 1 2 4 4 2 1 1 2 2 2 1 3 1 1 2 2 1 2 3 5 4 2 2 3 3 2 2 2 5 8 5 2 3 2 2 3 4 5 5 3 4 7 6 6 6 4 4 7 8 9 10 11 12 10 8 8 9 10 13 17 13 5 2 0 2 3 5 8 9 8 8 8 9 10 11 11
2 1 1 1 1 0 0 1 3 3 3 2 1 3 4 6 8 5 1 3 3 1 1 4 2 3 4 3 2 3 4 6 6 2 1 2 2 2 3 2 2 9 10 4 3 1 2 2 2 1 3 4 5 7 7 7 9 9 8 8 9 12 15 15 14 13 13 16 16 16 20 20 10 1 4 2 1 4 6 8 9 9 11 11 12 13 15 15
2 1 0 2 1 1 1 2 1 2 3 2 3 5 4 6 9 5 1 1 3 2 2 2 2 4 2 2 2 2 3 3 4 3 1 1 0 1 1 1 1 6 7 3 3 4 2 3 2 1 2 6 6 7 8 8 9 11 12 12 14 17 17 16 15 15 15 17 16 17 19 13 1 3 1 2 3 4 6 7 9 10 10 11 12 14 17 18
2 2 1 2 1 1 1 0 0 1 2 3 3 3 3 4 4 1 2 0 2 1 2 3 3 4 1 2 2 2 1 4 1 4 2 2 3 1 1 1 1 4 5 1 2 4 2 3 3 3 4 6 7 9 9 9 10 12 14 17 20 19 16 14 14 13 12 12 12 12 11 4 2 3 1 4 4 5 7 10 12 13 13 12 13 14 18 20
4 3 2 1 0 1 2 1 1 2 2 2 2 2 1 0 3 2 0 2 7 9 8 5 2 3 2 3 3 3 4 2 3 7 8 9 11 9 9 10 8 5 2 0 2 2 1 2 2 3 5 7 9 10 6 6 9 12 12 14 16 15 14 13 11 10 8 6 7 8 4 1 2 3 2 3 3 4 7 11 13 16 18 16 14 15 18 21
Wind_Direction
328 331 332 335 336 337 337 339 341 342 344 345 348 353 355 357 359 359 0 2 1 0 357 354 352 349 347 345 345 343 340 336 332 328 320 322 8 340 312 265 244 224 211 211 218 221 226 227 224 216 207 202 200 193 175 173 166 156 113 112 214 203 200 189 188 200 183 252 269 266 281 274 286 303 302 289 261 263 274 273 270 263 266 270 273 279 281 284
319 322 321 324 325 326 327 326 327 328 329 330 333 333 336 339 338 340 340 340 339 338 337 335 336 336 336 337 338 336 334 331 328 331 344 83 2 351 343 283 243 228 220 221 231 231 232 235 228 220 208 203 205 194 185 186 176 161 108 145 225 208 203 198 198 203 200 249 267 277 288 284 278 290 296 280 261 271 278 276 275 268 271 275 273 278 283 283
312 313 313 315 316 317 317 316 317 315 317 317 318 319 321 321 322 324 322 323 323 324 324 324 325 326 328 329 331 331 333 330 321 334 90 27 352 347 350 328 255 235 231 228 229 227 226 225 225 221 211 206 204 192 190 186 187 192 145 183 242 221 222 227 228 233 239 259 273 281 287 281 279 284 269 251 275 282 265 270 276 271 278 287 286 282 282 281
303 304 305 306 307 309 309 309 309 308 309 308 308 310 309 310 309 309 309 311 311 313 315 316 318 319 321 322 325 327 332 329 304 178 70 3 349 337 347 356 328 246 236 231 228 228 224 220 219 217 212 212 206 201 206 195 193 188 167 203 234 197 227 241 244 254 256 261 262 272 288 287 287 283 245 235 292 280 262 271 276 277 286 294 295 291 284 280
295 296 296 297 298 299 300 301 302 302 302 301 303 302 302 302 301 302 302 303 303 304 307 308 310 312 313 315 317 322 335 341 243 181 326 339 333 316 312 329 352 311 243 232 230 230 227 224 219 211 209 216 187 189 230 206 190 184 208 231 237 198 229 253 254 264 263 259 259 265 280 283 286 275 247 220 215 259 272 283 286 286 290 292 293 291 284 279
291 292 292 293 293 293 294 294 295 295 295 295 295 294 295 294 295 296 295 298 299 298 301 302 304 306 307 310 309 313 322 313 260 255 299 314 313 300 283 292 331 342 278 239 235 232 229 221 212 204 197 216 192 195 232 204 192 225 243 237 245 238 241 261 259 261 266 259 255 258 275 282 280 276 262 221 225 265 280 287 288 288 289 289 289 286 283 281
289 290 290 290 291 291 291 291 291 291 291 291 290 290 290 290 290 291 291 293 293 294 297 297 300 300 302 304 302 304 284 270 288 290 295 301 295 284 274 287 305 316 299 257 245 233 230 216 208 202 178 234 215 209 229 207 197 226 266 241 249 248 247 261 261 260 265 262 264 269 280 281 269 274 275 230 241 273 286 288 287 288 287 284 284 283 283 283
287 287 288 289 290 291 291 291 291 291 291 291 290 291 289 290 290 290 290 290 291 292 293 295 296 296 298 298 298 295 269 281 299 295 296 295 278 274 281 291 293 299 294 270 256 238 233 219 215 208 190 225 215 205 207 214 209 211 243 252 252 254 258 267 269 266 266 268 272 272 270 271 271 276 275 257 260 274 284 288 285 284 284 281 280 283 283 283
286 286 287 288 289 289 290 291 291 291 291 291 291 290 289 290 289 289 289 289 290 290 290 292 292 292 294 292 293 286 276 290 301 292 297 290 278 283 286 289 286 290 286 265 249 236 232 225 224 221 224 226 210 213 188 200 234 212 229 253 264 268 273 276 272 269 270 271 268 258 261 268 275 286 276 267 266 274 281 284 284 282 283 283 284 287 286 284
285 286 286 288 288 288 289 289 290 290 291 290 290 289 289 288 287 287 287 287 287 287 288 287 287 288 288 286 284 274 282 294 293 290 294 287 285 284 284 285 284 284 278 262 247 241 240 240 240 228 236 236 211 215 183 189 234 228 241 269 273 278 283 278 270 271 269 268 256 226 251 267 276 298 271 269 264 268 275 279 284 283 283 288 289 291 291 287
283 284 285 286 287 288 289 289 289 290 290 290 289 289 289 288 288 287 287 287 286 286 286 285 287 285 285 284 268 259 282 289 288 289 288 286 285 281 280 279 278 278 268 262 253 251 251 246 239 214 224 228 207 208 211 225 241 269 302 292 284 293 293 277 262 269 259 262 252 222 243 273 279 248 254 267 266 264 272 279 284 282 283 288 291 292 292 290
282 283 284 285 287 288 289 289 290 289 290 290 290 290 290 289 289 289 289 288 287 286 284 284 285 283 286 282 267 268 283 285 283 285 282 282 280 276 276 273 271 270 263 259 253 251 245 238 232 218 220 202 185 208 236 236 238 293 334 299 295 326 303 274 252 261 237 236 243 197 240 282 261 233 258 270 274 273 273 278 284 283 284 287 289 290 289 288
280 281 283 284 285 286 288 289 289 290 290 290 290 290 290 290 290 290 289 288 286 284 283 282 280 281 282 277 273 277 284 282 280 279 277 276 275 274 272 268 265 261 257 252 245 240 231 234 231 227 234 213 206 242 260 265 223 287 329 226 302 338 306 270 233 241 209 211 190 155 236 267 238 250 265 275 280 281 275 275 282 284 285 286 286 285 284 286
279 280 282 282 284 285 286 288 289 290 291 292 292 292 291 291 291 290 289 287 285 282 280 278 275 275 271 270 278 283 281 280 279 275 274 273 272 272 269 266 263 258 255 248 242 235 224 224 222 225 235 231 241 259 287 344 24 280 298 140 305 297 283 287 165 151 198 224 173 159 258 253 252 264 271 281 283 280 272 274 281 282 285 286 284 283 282 286
277 279 281 282 284 285 287 289 291 294 296 297 297 298 297 297 296 293 292 289 285 281 277 273 269 267 266 273 278 281 282 281 280 278 274 269 267 268 268 265 261 256 250 240 234 231 221 207 204 211 228 234 241 263 315 346 4 14 281 274 255 214 269 305 301 197 216 237 169 169 260 254 258 266 273 284 288 282 270 277 283 282 285 285 284 283 283 286
275 279 281 284 287 289 294 296 300 305 309 309 310 310 307 306 303 299 297 292 287 282 275 270 266 257 259 279 279 277 280 281 282 280 274 269 266 264 264 262 257 247 235 228 224 218 204 186 193 204 217 232 202 137 26 358 325 336 221 249 246 243 273 315 301 251 210 196 178 205 242 264 263 263 273 285 291 291 281 281 284 284 285 284 283 283 282 285
276 281 285 292 295 300 308 310 317 324 328 327 323 323 320 315 310 304 300 296 292 283 271 263 259 252 251 266 273 276 279 283 284 280 274 272 266 261 259 253 243 231 218 212 209 195 184 177 181 208 224 223 115 115 40 316 272 275 221 241 241 249 267 288 300 302 193 164 210 239 241 254 261 272 281 283 287 292 284 279 281 284 285 284 283 282 281 282
278 285 289 298 305 316 324 327 331 335 342 340 333 333 328 319 315 309 306 305 298 288 272 242 206 223 259 252 259 275 285 286 283 280 277 271 262 257 251 243 233 214 193 189 194 179 176 176 159 179 296 269 126 130 190 233 233 237 229 248 266 251 256 254 265 305 337 229 231 264 256 255 263 277 280 280 284 287 283 281 282 282 282 283 283 282 283 282
281 287 296 308 316 324 332 336 338 339 343 344 340 337 331 327 324 314 314 321 302 286 278 229 196 203 263 257 264 278 286 285 282 280 275 269 261 248 229 223 212 187 169 162 188 179 168 142 105 144 236 224 208 181 206 229 231 232 226 240 271 269 251 241 250 266 303 292 267 265 267 265 269 272 274 279 280 278 280 283 282 280 280 281 283 283 284 283
277 291 302 312 318 324 334 338 341 343 342 345 348 347 346 348 342 316 314 310 294 281 275 261 248 251 261 269 273 276 280 279 279 276 271 267 254 227 199 186 177 176 173 155 182 183 168 159 155 200 222 222 222 209 218 247 298 301 242 254 261 268 269 259 268 270 175 282 267 257 272 277 272 269 273 278 278 272 271 274 277 278 280 282 282 282 283 283
273 287 295 304 314 321 328 336 340 343 344 347 353 2 12 6 355 310 313 307 297 289 280 276 268 259 262 268 269 269 271 273 272 267 264 254 225 198 186 170 155 182 201 148 140 140 160 184 210 220 223 219 230 218 223 260 294 271 254 271 268 256 270 267 270 277 224 249 263 251 273 278 274 271 265 269 271 260 258 265 274 278 281 281 279 278 281 285
274 281 290 296 305 313 317 328 333 336 343 346 352 8 15 360 340 319 317 297 295 295 284 277 267 259 262 265 261 260 259 262 264 254 249 232 201 192 186 165 163 194 162 135 119 104 189 215 230 232 229 97 27 80 146 221 241 252 250 275 278 257 279 274 258 284 325 231 276 284 278 277 272 263 254 253 253 257 262 262 267 271 274 274 274 278 284 290
276 278 286 290 293 300 304 316 322 328 337 342 351 2 1 351 342 332 322 276 286 294 280 270 261 257 261 260 256 253 245 244 255 248 241 221 194 196 189 162 170 165 144 187 195 197 217 233 235 236 227 211 282 73 100 244 247 229 223 261 274 254 276 273 262 316 338 247 275 297 288 280 265 257 252 252 251 258 264 260 261 265 264 265 270 279 285 291
276 272 278 284 286 291 296 309 317 323 332 343 350 351 350 347 343 338 326 275 272 286 275 268 260 256 260 259 254 248 239 237 248 251 239 218 192 191 196 171 156 153 191 208 211 221 232 233 227 223 199 203 240 218 129 261 263 225 205 224 259 255 251 254 281 337 328 285 298 320 298 287 268 261 261 266 260 252 257 261 261 260 260 265 273 278 283 295
275 270 273 280 285 291 297 309 315 322 332 341 341 338 346 346 342 341 334 298 281 278 264 264 263 256 254 257 253 240 234 238 240 242 234 215 201 189 178 177 169 194 212 207 220 242 249 242 199 148 173 190 208 231 204 218 253 263 210 211 238 253 256 261 291 345 346 307 347 12 320 297 23 343 265 288 299 257 254 259 254 255 264 283 281 283 299 314
278 277 276 280 293 298 298 307 311 318 329 332 330 331 339 341 342 343 344 347 298 276 228 236 257 262 232 248 233 194 197 257 237 226 216 209 207 198 161 174 177 210 202 186 217 247 243 241 214 157 161 160 180 238 220 198 238 287 235 210 226 241 254 265 288 337 306 258 302 53 352 284 289 177 242 262 271 270 264 249 252 258 287 303 285 295 320 320
275 279 278 279 293 294 290 295 298 312 328 327 321 324 330 340 349 347 352 357 296 248 134 174 181 42 287 182 157 149 187 282 205 206 202 199 202 199 207 202 169 227 179 143 270 247 192 212 130 127 134 138 175 240 217 173 188 266 238 188 196 219 235 237 229 229 236 283 314 116 144 279 283 234 246 246 213 266 267 257 263 276 302 293 289 301 316 334
267 272 274 273 278 281 280 286 294 310 324 322 318 318 328 340 347 1 27 300 297 110 108 168 130 54 29 160 160 132 36 350 59 183 192 194 198 192 234 223 187 209 180 156 240 262 155 173 176 147 127 162 200 223 182 159 183 250 202 135 154 187 198 171 170 208 254 346 308 231 142 257 278 264 356 20 188 249 261 259 268 290 295 290 293 306 334 35
265 266 267 265 268 273 274 279 289 300 309 316 314 312 324 325 343 29 96 240 321 68 74 172 117 36 59 134 173 334 17 20 43 148 169 189 201 186 272 230 182 194 215 190 232 264 139 185 186 154 145 205 213 212 170 165 194 218 134 96 82 87 85 104 142 139 69 312 253 204 163 231 281 274 102 40 243 245 258 258 268 290 294 290 293 329 29 63
268 269 268 267 267 270 272 275 281 289 297 306 304 303 314 313 11 58 215 232 16 36 53 106 268 334 49 90 329 307 321 352 72 131 128 151 197 203 334 261 139 136 253 295 267 260 280 53 138 177 199 203 164 116 167 167 164 132 111 66 44 40 46 60 47 89 66 285 232 191 183 189 282 298 142 181 223 242 259 277 287 302 320 310 309 37 45 69
272 271 270 270 268 269 273 274 277 281 286 298 306 312 352 10 58 196 230 261 32 295 60 65 314 28 71 81 329 319 23 340 84 129 100 66 162 221 16 336 70 67 356 323 292 288 310 114 244 234 222 170 109 75 14 75 119 109 90 55 23 347 14 26 355 50 172 267 240 193 186 185 233 267 262 247 254 249 233 254 280 312 342 334 39 71 40 63
272 271 269 268 265 265 269 270 273 274 278 296 302 18 98 37 248 215 247 0 353 266 79 104 278 88 93 93 218 278 21 296 105 113 116 81 125 199 204 195 177 355 328 271 279 320 272 223 249 284 234 183 134 79 5 11 69 98 103 105 346 315 349 353 315 76 218 262 270 183 175 216 240 250 273 267 269 256 223 235 261 289 315 311 308 44 41 62
269 268 267 265 264 264 263 264 268 266 276 290 249 139 106 227 239 190 129 296 260 340 88 140 34 114 136 317 250 212 121 187 163 129 142 116 76 258 248 215 164 192 273 232 306 319 294 281 244 262 259 195 165 164 234 251 161 153 156 157 166 206 270 272 261 265 269 280 301 183 169 259 281 262 233 243 261 266 230 248 266 277 287 284 286 339 47 53
265 264 264 263 263 263 260 262 262 261 267 257 176 130 156 225 232 89 173 233 260 341 14 117 32 25 146 248 251 190 210 248 148 139 140 99 61 280 270 248 184 160 219 269 321 267 281 298 214 189 233 174 178 201 189 136 151 179 158 140 163 175 207 241 233 254 277 291 311 303 193 226 262 263 233 231 267 316 328 282 279 288 288 285 301 24 48 37
265 265 263 262 262 260 262 262 257 253 250 224 166 167 224 228 240 129 204 233 272 305 306 358 35 344 281 244 276 227 217 251 121 120 155 159 184 208 216 235 195 159 134 213 272 177 235 270 243 235 161 159 182 216 147 107 134 205 118 116 216 198 190 243 245 230 253 307 294 253 227 228 218 263 268 254 281 319 311 293 288 285 283 311 28 43 37 31
266 266 264 263 261 260 262 257 248 241 227 196 169 231 232 228 201 184 189 184 164 160 325 329 3 264 281 260 308 331 166 213 183 115 198 195 212 214 209 228 194 174 171 177 220 211 230 264 258 19 284 194 197 197 138 142 188 169 125 183 227 168 153 232 277 257 162 262 265 244 255 277 287 283 278 243 208 359 338 312 303 305 316 23 42 36 30 35
267 266 266 264 261 260 255 246 237 225 204 176 203 237 226 212 201 195 180 144 141 134 91 303 240 203 260 261 275 306 91 229 210 168 220 223 239 204 199 248 203 186 198 192 201 231 232 271 259 180 228 241 203 148 58 90 142 135 177 221 220 112 137 150 265 323 253 250 257 255 263 278 291 283 319 43 31 14 358 342 358 6 17 36 39 33 34 38
268 267 267 266 262 254 241 233 221 205 188 174 235 237 214 211 206 190 177 166 170 179 188 247 243 216 242 244 252 218 179 208 175 168 208 223 238 184 168 243 206 192 213 188 155 231 209 265 275 198 213 244 113 110 343 359 145 146 189 226 98 180 219 132 177 226 250 252 251 247 262 272 260 256 301 348 328 334 344 3 30 30 32 35 31 29 31 32
271 271 271 263 254 239 222 214 202 191 182 182 235 233 214 215 221 218 215 210 205 197 211 232 232 245 236 208 225 234 202 202 174 194 218 218 238 193 162 230 203 196 218 167 173 259 181 253 277 151 186 238 75 124 193 223 241 83 16 334 68 185 211 167 179 173 239 258 262 242 251 262 256 254 53 325 320 347 7 44 52 40 38 37 32 29 27 29
258 257 256 211 214 216 196 189 189 187 186 221 227 230 230 222 238 235 227 223 211 195 227 235 213 229 246 218 226 246 232 207 192 212 224 221 254 228 197 212 186 169 121 156 199 253 82 249 251 246 272 239 191 193 181 190 204 149 184 249 232 208 214 280 242 186 225 253 257 248 246 250 264 318 35 36 31 36 46 66 65 42 37 35 31 30 29 29
201 196 224 191 197 192 175 174 187 192 201 237 232 244 256 257 278 262 235 227 224 225 234 220 202 221 251 260 249 230 216 220 207 212 225 231 247 240 242 319 170 163 94 87 219 216 178 239 233 237 252 239 234 220 193 193 191 177 195 206 218 227 243 276 254 206 211 240 239 252 259 252 266 331 37 52 53 48 44 54 61 46 39 32 30 33 32 30
176 178 191 183 184 174 168 172 202 205 201 226 232 249 256 265 273 262 247 222 217 242 259 235 220 233 251 259 250 227 227 233 209 214 236 232 225 228 314 3 24 151 128 139 249 265 96 94 243 244 243 255 261 243 197 211 196 177 214 203 213 217 204 241 252 240 235 234 225 249 259 256 299 50 68 67 59 53 46 46 48 40 36 32 31 32 31 29
178 178 154 156 172 176 173 186 227 196 223 255 257 259 258 269 264 247 246 214 205 227 240 238 236 234 239 245 240 232 236 225 211 227 240 235 229 264 349 350 358 18 351 300 314 15 63 98 252 243 247 276 278 295 37 3 164 182 243 214 211 227 224 239 251 267 265 246 243 254 254 263 1 90 101 97 83 71 59 54 53 39 32 32 30 29 28 25
182 188 164 155 173 181 183 206 213 198 234 249 253 258 259 265 260 251 246 204 199 200 219 266 243 235 252 271 256 253 250 239 238 245 241 238 265 9 20 10 19 56 25 269 234 43 88 181 273 279 283 294 285 295 11 21 46 236 257 253 257 282 292 283 267 277 251 221 230 249 250 226 233 126 99 101 102 93 75 68 68 57 44 39 34 28 22 18
145 199 202 186 188 197 211 229 183 217 230 232 247 254 255 264 258 252 251 233 220 214 232 263 234 217 308 333 352 278 243 228 251 267 264 275 276 11 36 34 50 90 82 62 88 137 159 223 235 270 272 271 279 281 300 45 305 280 301 324 334 312 288 292 278 261 250 222 220 244 265 261 275 316 354 30 69 79 68 60 62 60 53 47 42 32 23 16
109 179 219 207 209 220 241 259 244 253 232 227 241 241 242 252 254 247 240 239 235 225 229 244 224 184 253 241 248 262 247 213 201 233 270 263 270 2 55 62 67 91 107 59 44 92 143 252 223 237 254 257 271 279 304 25 266 262 288 302 311 301 276 276 255 245 273 277 252 252 269 275 288 307 329 358 12 22 31 28 33 44 43 38 37 34 27 21
115 190 135 138 239 234 241 264 292 280 274 286 246 245 250 247 259 258 231 232 239 216 232 241 206 200 235 230 233 256 258 231 211 230 256 256 259 311 60 89 68 67 127 64 27 90 156 260 230 234 249 254 277 292 315 334 285 268 289 287 291 292 275 262 258 268 303 297 272 279 288 284 290 296 311 360 0 353 358 355 351 358 8 11 12 12 14 15
123 158 130 120 265 239 224 265 318 302 281 295 298 298 288 269 286 306 261 302 352 50 334 260 230 235 270 274 250 272 299 297 285 270 276 297 309 332 3 81 59 37 43 16 4 103 163 248 238 244 272 294 314 307 305 304 291 283 280 275 281 283 273 265 266 282 300 281 278 302 297 286 288 283 207 69 355 328 328 335 333 324 324 335 343 345 348 351
140 168 139 131 257 277 198 302 357 349 292 280 252 257 264 272 277 273 314 330 314 338 288 258 280 30 25 356 304 260 277 280 277 266 99 351 302 297 338 340 36 27 28 13 322 324 170 250 240 217 293 297 286 285 289 294 293 288 278 272 273 270 267 269 272 274 271 264 270 279 276 277 286 189 160 181 323 319 315 323 326 316 311 318 326 333 337 337
114 138 111 49 15 284 281 285 330 350 293 260 243 260 257 257 268 277 352 294 263 291 314 283 355 17 24 28 33 257 279 291 278 278 113 110 341 82 348 290 16 1 4 8 313 314 279 272 304 58 292 279 272 270 275 279 283 287 287 280 271 266 266 270 271 269 264 263 265 264 265 271 289 110 188 282 292 309 308 306 312 312 305 301 305 319 330 332
165 173 185 57 21 241 197 268 130 188 260 236 214 262 274 243 257 300 52 69 157 121 87 93 28 0 5 27 27 212 154 87 54 304 323 274 270 273 262 269 11 345 338 336 299 322 313 285 332 0 297 274 275 277 283 295 294 286 280 273 268 266 264 263 262 263 266 270 273 271 270 273 125 141 281 294 281 294 306 304 310 317 313 298 293 308 324 329
209 228 239 156 354 269 150 91 30 182 223 237 212 267 260 77 18 28 178 90 100 102 82 70 26 7 3 306 298 170 151 88 306 295 292 272 266 257 246 251 254 251 248 318 285 265 229 248 294 306 285 280 284 288 307 331 300 277 266 263 265 265 266 266 265 264 262 258 268 275 267 183 175 187 219 281 261 261 289 294 300 312 313 303 295 307 320 326